{"data":{"norad_id":56351,"epoch":"2026-09-20T23:01:37.591104Z","epoch_age_seconds":68938,"freshness":"FRESH","line1":"1 56351U 23058AL  26263.95946286  .00000314  00000+0  12059-4 0  9994","line2":"2 56351  97.2831 260.6845 0001986  97.5277 262.6192 15.33436475187706","mean_motion":15.33436475,"eccentricity":0.0001986,"inclination_deg":97.2831,"raan_deg":260.6845,"arg_perigee_deg":97.5277,"mean_anomaly_deg":262.6192,"bstar":1.2059e-5,"rev_number":18770,"period_min":93.906726719801,"perigee_km":464.20937907775,"apogee_km":466.92769891784,"semimajor_km":6843.7055389978,"source":"CELESTRAK","updated_at":"2026-09-21T09:00:33.427728Z"}}